SWR242E LSZH-LEPA

Flight info

Callsign SWR242E
Flight time N/A
Altitude 37000
Route VEBIT T50 ROTOS Z669 ULMES DCT VADAR DCT GEVEA DCT INCUS DCT BALSI DCT RETNO DCT TUPOX DCT MTG DCT DIVKO DCT VATIR DCT PIVUS DCT BODEQ DCT VERSO L129 LUNIK
Aircraft A320/M-SDE3FGHIRWY/LB1

Departure

Time N/A
Airport Zürich Airport (LSZH)

Arrival

Time 2026-05-01 08:36
Airport Palma de Mallorca Airport (LEPA)
Time Latitude Longitude Altitude Speed Heading
2026-05-01 07:23 46.04633 6.08623 37508 ft 434 kts 188°
2026-05-01 07:23 45.98690 6.07402 37757 ft 434 kts 188°
2026-05-01 07:24 45.95681 6.06822 37485 ft 437 kts 188°
2026-05-01 07:24 45.92669 6.06241 37269 ft 437 kts 188°
2026-05-01 07:24 45.89661 6.05650 37304 ft 438 kts 188°
2026-05-01 07:25 45.83619 6.04460 37301 ft 438 kts 188°
2026-05-01 07:25 45.77619 6.03305 37301 ft 438 kts 188°
2026-05-01 07:26 45.71587 6.02170 37300 ft 437 kts 188°
2026-05-01 07:26 45.65547 6.01036 37301 ft 437 kts 188°
2026-05-01 07:27 45.59509 5.99912 37300 ft 438 kts 188°
2026-05-01 07:27 45.53466 5.98828 37304 ft 438 kts 188°
2026-05-01 07:28 45.47464 5.97756 37304 ft 438 kts 188°
2026-05-01 07:28 45.41421 5.96679 37308 ft 438 kts 188°
2026-05-01 07:29 45.35370 5.95661 37301 ft 438 kts 188°
2026-05-01 07:29 45.29313 5.94657 37298 ft 438 kts 188°
2026-05-01 07:30 45.23253 5.93648 37299 ft 438 kts 189°
2026-05-01 07:30 45.17395 5.91652 37294 ft 436 kts 197°
2026-05-01 07:31 45.11525 5.89467 37288 ft 436 kts 197°
2026-05-01 07:32 44.96880 5.83984 37287 ft 438 kts 197°
2026-05-01 07:33 44.88040 5.80708 37285 ft 438 kts 197°
2026-05-01 07:33 44.79182 5.77449 37282 ft 439 kts 198°
2026-05-01 07:34 44.70361 5.74195 37280 ft 439 kts 198°
2026-05-01 07:35 44.64445 5.72021 37282 ft 440 kts 198°
2026-05-01 07:35 44.58527 5.69847 37294 ft 439 kts 198°
2026-05-01 07:36 44.52623 5.67673 37305 ft 439 kts 198°
2026-05-01 07:36 44.46758 5.65529 37302 ft 438 kts 198°
2026-05-01 07:37 44.37919 5.62270 37308 ft 436 kts 202°
2026-05-01 07:37 44.32280 5.59227 37306 ft 435 kts 205°
2026-05-01 07:38 44.26652 5.56130 37295 ft 435 kts 205°
2026-05-01 07:39 44.18239 5.51534 37295 ft 435 kts 205°
2026-05-01 07:39 44.09775 5.46921 37296 ft 435 kts 205°
2026-05-01 07:40 44.04132 5.43854 37302 ft 436 kts 205°
2026-05-01 07:40 43.98481 5.40796 37289 ft 436 kts 205°
2026-05-01 07:41 43.92864 5.37757 37299 ft 436 kts 205°
2026-05-01 07:42 43.84379 5.33159 37275 ft 437 kts 205°
2026-05-01 07:42 43.78714 5.30107 37286 ft 437 kts 204°
2026-05-01 07:43 43.73048 5.27070 37284 ft 437 kts 204°
2026-05-01 07:43 43.64589 5.22537 37293 ft 437 kts 204°
2026-05-01 07:44 43.53256 5.16461 37270 ft 437 kts 204°
2026-05-01 07:45 43.47573 5.13444 37262 ft 437 kts 204°
2026-05-01 07:45 43.41938 5.10448 37263 ft 438 kts 204°
2026-05-01 07:46 43.36535 5.06725 37264 ft 432 kts 218°
2026-05-01 07:47 43.29119 4.99691 37259 ft 432 kts 217°
2026-05-01 07:47 43.24150 4.95034 37257 ft 433 kts 217°
2026-05-01 07:48 43.16725 4.88079 37267 ft 433 kts 217°
2026-05-01 07:48 43.11753 4.83425 37259 ft 433 kts 216°
2026-05-01 07:49 43.04209 4.76623 37268 ft 434 kts 212°
2026-05-01 07:50 42.98965 4.72634 37266 ft 434 kts 212°
2026-05-01 07:50 42.91039 4.66639 37263 ft 434 kts 211°
2026-05-01 07:51 42.85755 4.62654 37270 ft 434 kts 211°
2026-05-01 07:52 42.77867 4.56704 37267 ft 434 kts 211°
2026-05-01 07:52 42.72598 4.52731 37277 ft 433 kts 211°
2026-05-01 07:53 42.64688 4.46806 37273 ft 432 kts 212°
2026-05-01 07:53 42.59422 4.42872 37266 ft 432 kts 212°
2026-05-01 07:55 42.46296 4.33077 37266 ft 431 kts 213°
2026-05-01 07:56 42.33161 4.23313 37257 ft 431 kts 211°
2026-05-01 07:57 42.25308 4.17524 37254 ft 430 kts 210°
2026-05-01 07:58 42.14815 4.09785 37259 ft 429 kts 211°
2026-05-01 07:59 42.04371 4.02118 37251 ft 429 kts 211°
2026-05-01 08:00 41.88089 3.92361 37242 ft 434 kts 192°
2026-05-01 08:01 41.76247 3.89644 37237 ft 433 kts 192°
2026-05-01 08:02 41.67346 3.87581 37236 ft 433 kts 192°
2026-05-01 08:03 41.58452 3.85549 37245 ft 432 kts 192°
2026-05-01 08:03 41.49623 3.83517 37225 ft 431 kts 192°
2026-05-01 08:04 41.37850 3.80823 37239 ft 428 kts 192°
2026-05-01 08:05 41.29092 3.78827 37233 ft 427 kts 192°
2026-05-01 08:06 41.20307 3.76833 37230 ft 427 kts 192°
2026-05-01 08:07 41.09032 3.72463 37219 ft 424 kts 203°
2026-05-01 08:07 41.03538 3.69623 37058 ft 425 kts 202°
2026-05-01 08:08 41.00785 3.68206 36788 ft 425 kts 202°
2026-05-01 08:08 40.95274 3.65377 36265 ft 425 kts 203°
2026-05-01 08:09 40.89752 3.62546 35766 ft 426 kts 203°
2026-05-01 08:09 40.86985 3.61128 35510 ft 426 kts 203°
2026-05-01 08:09 40.84225 3.59714 35255 ft 425 kts 203°
2026-05-01 08:10 40.78764 3.56916 34774 ft 422 kts 203°
2026-05-01 08:10 40.73316 3.54129 34293 ft 418 kts 203°
2026-05-01 08:11 40.67904 3.51374 33755 ft 415 kts 203°
2026-05-01 08:11 40.62579 3.48672 32813 ft 406 kts 203°
2026-05-01 08:12 40.57383 3.46039 31837 ft 400 kts 203°
2026-05-01 08:12 40.54801 3.44730 31351 ft 397 kts 203°
2026-05-01 08:12 40.49679 3.42137 30390 ft 391 kts 203°
2026-05-01 08:13 40.47146 3.40860 29875 ft 388 kts 203°
2026-05-01 08:13 40.44578 3.39825 29415 ft 386 kts 194°
2026-05-01 08:13 40.39249 3.39507 28486 ft 382 kts 180°
2026-05-01 08:14 40.37497 3.39615 28201 ft 380 kts 180°
2026-05-01 08:14 40.34024 3.39820 27614 ft 375 kts 180°
2026-05-01 08:14 40.31430 3.39968 27186 ft 372 kts 180°
2026-05-01 08:14 40.28858 3.40113 26765 ft 368 kts 180°
2026-05-01 08:15 40.26311 3.40257 26341 ft 366 kts 180°
2026-05-01 08:15 40.22105 3.40490 25638 ft 362 kts 180°
2026-05-01 08:15 40.19598 3.40630 25192 ft 360 kts 179°
2026-05-01 08:16 40.17095 3.40773 24761 ft 359 kts 179°
2026-05-01 08:16 40.14605 3.40916 24319 ft 358 kts 179°
2026-05-01 08:16 40.11313 3.41103 23718 ft 357 kts 179°
2026-05-01 08:16 40.08834 3.41243 23206 ft 356 kts 179°
2026-05-01 08:17 40.06363 3.41383 22755 ft 354 kts 179°
2026-05-01 08:17 40.04731 3.41476 22455 ft 353 kts 179°
2026-05-01 08:17 40.02284 3.41615 22010 ft 352 kts 179°
2026-05-01 08:17 39.99845 3.41754 21564 ft 350 kts 179°
2026-05-01 08:18 39.97415 3.41891 21124 ft 349 kts 179°
2026-05-01 08:18 39.91804 3.42206 20118 ft 346 kts 179°
2026-05-01 08:19 39.87780 3.42439 19384 ft 345 kts 179°
2026-05-01 08:19 39.85381 3.42575 18957 ft 345 kts 179°
2026-05-01 08:19 39.83018 3.42704 18539 ft 344 kts 179°
2026-05-01 08:19 39.80625 3.42833 18070 ft 344 kts 179°
2026-05-01 08:20 39.78241 3.42962 17649 ft 342 kts 179°
2026-05-01 08:20 39.75866 3.43091 17231 ft 340 kts 179°
2026-05-01 08:20 39.73509 3.43073 16813 ft 337 kts 190°
2026-05-01 08:20 39.71276 3.42265 16409 ft 332 kts 207°
2026-05-01 08:21 39.69350 3.40663 16002 ft 328 kts 224°
2026-05-01 08:21 39.67880 3.38430 15600 ft 324 kts 240°
2026-05-01 08:21 39.66852 3.35879 15215 ft 323 kts 245°
2026-05-01 08:21 39.65853 3.33271 14806 ft 322 kts 245°
2026-05-01 08:22 39.64857 3.30678 14535 ft 318 kts 245°
2026-05-01 08:22 39.63883 3.28151 14370 ft 310 kts 245°
2026-05-01 08:22 39.62922 3.25665 14074 ft 306 kts 245°
2026-05-01 08:22 39.61968 3.23206 13568 ft 304 kts 244°
2026-05-01 08:23 39.61022 3.20767 13059 ft 301 kts 244°
2026-05-01 08:23 39.60088 3.18346 12656 ft 299 kts 244°
2026-05-01 08:23 39.59160 3.15942 12289 ft 298 kts 244°
2026-05-01 08:23 39.58233 3.13546 11952 ft 296 kts 243°
2026-05-01 08:24 39.57312 3.11169 11605 ft 293 kts 243°
2026-05-01 08:24 39.56417 3.08868 11022 ft 289 kts 242°
2026-05-01 08:24 39.55524 3.06572 10583 ft 280 kts 242°
2026-05-01 08:24 39.54663 3.04353 10221 ft 271 kts 242°
2026-05-01 08:25 39.53831 3.02207 9835 ft 263 kts 242°
2026-05-01 08:25 39.53011 3.00094 9472 ft 263 kts 242°
2026-05-01 08:25 39.52186 2.97972 9103 ft 263 kts 242°
2026-05-01 08:25 39.51365 2.95866 8741 ft 262 kts 242°
2026-05-01 08:26 39.50542 2.93765 8373 ft 262 kts 242°
2026-05-01 08:26 39.49727 2.91689 8000 ft 262 kts 242°
2026-05-01 08:26 39.48904 2.89587 7614 ft 262 kts 242°
2026-05-01 08:26 39.48081 2.87481 7225 ft 263 kts 242°
2026-05-01 08:27 39.47256 2.85366 6836 ft 264 kts 242°
2026-05-01 08:27 39.46425 2.83242 6425 ft 265 kts 242°
2026-05-01 08:27 39.45589 2.81106 5967 ft 268 kts 242°
2026-05-01 08:27 39.44736 2.78934 5453 ft 273 kts 242°
2026-05-01 08:28 39.43888 2.76731 5003 ft 274 kts 246°
2026-05-01 08:28 39.43380 2.74355 4560 ft 275 kts 262°
2026-05-01 08:28 39.43166 2.71900 4119 ft 274 kts 263°
2026-05-01 08:28 39.42948 2.69449 3703 ft 274 kts 264°
2026-05-01 08:29 39.42734 2.67090 3563 ft 261 kts 264°
2026-05-01 08:29 39.42526 2.64849 3385 ft 243 kts 264°
2026-05-01 08:29 39.42328 2.62722 3020 ft 236 kts 264°
2026-05-01 08:29 39.42134 2.60626 2837 ft 234 kts 264°
2026-05-01 08:30 39.41943 2.58537 2827 ft 232 kts 264°
2026-05-01 08:30 39.41772 2.56484 2503 ft 227 kts 270°
2026-05-01 08:30 39.42017 2.54506 2274 ft 222 kts 287°
2026-05-01 08:30 39.42605 2.52691 2040 ft 217 kts 314°
2026-05-01 08:31 39.43819 2.51749 2098 ft 196 kts 352°
2026-05-01 08:31 39.45068 2.51877 2186 ft 170 kts 24°
2026-05-01 08:31 39.45962 2.52706 2240 ft 153 kts 52°
2026-05-01 08:31 39.46519 2.53817 2300 ft 146 kts 58°
2026-05-01 08:32 39.47049 2.54931 2298 ft 145 kts 58°
2026-05-01 08:32 39.47576 2.56039 2217 ft 143 kts 58°
2026-05-01 08:32 39.48101 2.57140 2133 ft 143 kts 58°
2026-05-01 08:32 39.48622 2.58236 2036 ft 143 kts 58°
2026-05-01 08:33 39.49140 2.59329 1936 ft 142 kts 58°
2026-05-01 08:33 39.49658 2.60422 1833 ft 143 kts 59°
2026-05-01 08:33 39.50184 2.61511 1718 ft 143 kts 59°
2026-05-01 08:33 39.50705 2.62610 1543 ft 142 kts 59°
2026-05-01 08:34 39.51217 2.63689 1365 ft 143 kts 59°
2026-05-01 08:34 39.51737 2.64786 1163 ft 142 kts 59°
2026-05-01 08:34 39.52262 2.65888 986 ft 144 kts 59°
2026-05-01 08:34 39.52784 2.66994 807 ft 144 kts 58°
2026-05-01 08:35 39.53304 2.68085 623 ft 142 kts 58°
2026-05-01 08:35 39.53813 2.69159 421 ft 139 kts 58°
2026-05-01 08:35 39.54318 2.70229 216 ft 138 kts 58°
2026-05-01 08:35 39.54820 2.71288 47 ft 138 kts 59°
2026-05-01 08:36 39.55270 2.72247 29 ft 106 kts 58°
2026-05-01 08:36 39.55548 2.72829 31 ft 41 kts 60°
2026-05-01 08:36 39.55653 2.73047 33 ft 26 kts 58°
2026-05-01 08:36 39.55711 2.73259 32 ft 25 kts 88°
2026-05-01 08:37 39.55709 2.73436 33 ft 10 kts 92°
2026-05-01 08:37 39.55683 2.73509 34 ft 9 kts 174°
2026-05-01 08:37 39.55626 2.73497 34 ft 8 kts 160°
2026-05-01 08:37 39.55583 2.73530 34 ft 7 kts 147°
2026-05-01 08:38 39.55529 2.73572 34 ft 15 kts 150°
2026-05-01 08:38 39.55439 2.73643 33 ft 16 kts 149°
2026-05-01 08:38 39.55341 2.73721 34 ft 17 kts 148°
2026-05-01 08:38 39.55231 2.73808 33 ft 19 kts 149°
2026-05-01 08:39 39.55109 2.73904 33 ft 22 kts 148°
2026-05-01 08:39 39.54977 2.74008 33 ft 22 kts 148°
2026-05-01 08:39 39.54863 2.74099 33 ft 10 kts 149°
2026-05-01 08:39 39.54803 2.74125 33 ft 8 kts 192°
2026-05-01 08:40 39.54701 2.73942 34 ft 13 kts 238°
2026-05-01 08:40 39.54657 2.73849 34 ft 11 kts 239°
2026-05-01 08:40 39.54616 2.73759 35 ft 13 kts 238°
2026-05-01 08:41 39.54586 2.73672 35 ft 9 kts 272°
2026-05-01 08:41 39.54623 2.73625 35 ft 7 kts 344°
2026-05-01 08:41 39.54667 2.73610 35 ft 6 kts 336°
2026-05-01 08:41 39.54699 2.73584 34 ft 5 kts 328°
2026-05-01 08:42 39.54727 2.73563 35 ft 4 kts 329°
2026-05-01 08:42 39.54750 2.73546 35 ft 3 kts 334°
2026-05-01 08:42 39.54769 2.73548 35 ft 2 kts 19°
2026-05-01 08:42 39.54781 2.73570 35 ft 4 kts 59°
2026-05-01 08:43 39.54801 2.73610 33 ft 3 kts 56°